Spokane Fairchild, WA
on Monday, December 10, 2012

Monday
Previous Day Next Day
Daily Summary
 ActualAverage (KGEG)Record (KGEG)
Temperature
Mean Temperature °F 28°F  
Max Temperature 32°F 32°F 60°F (1939)
Min Temperature 26°F 23°F -8°F (1972)
Degree Days
Heating Degree Days 36 37  
Month to date heating degree days 363  
Since 1 July heating degree days 2030  
Cooling Degree Days 0 0  
Month to date cooling degree days 0  
Year to date cooling degree days 450  
Moisture
Dew Point 29°F   
Average Humidity 100    
Maximum Humidity 100    
Minimum Humidity 100    
Precipitation
Precipitation 0.00 in 0.08 in 0.66 in (1937)
Month to date precipitation 0.82  
Year to date precipitation 15.08  
Snow
Snow 0.00 in 0.40 in 3.60 in (1965)
Month to date snowfall 4.2  
Since 1 July snowfall 11.7  
Snow Depth in   
Wind
Wind Speed 4 mph   
Max Wind Speed 12 mph   
Max Gust Speed mph   
Visibility 7 miles   
Events Fog , Rain , Snow   

Key: T is trace of precipitation, MM is missing value
Source: NWS Daily Summary
Time(PST)TemperatureDew PointHumidity Pressure Visibility Wind DirectionWind SpeedGust SpeedPrecipitationEvents Conditions
12:23 AM 28.4°F 28.4°F 100% 30.14 in 2.5 miles South 1.2 mph - N/A   Overcast
12:33 AM 28.4°F 28.4°F 100% 30.14 in 2.5 miles Calm Calm - N/A   Overcast
12:54 AM 30.2°F 30.2°F 100% 30.14 in 2.5 miles Calm Calm - N/A   Overcast
12:58 AM 29.5°F 29.5°F 100% 30.22 in 2.5 miles Calm Calm - 0.00 in   Overcast
1:08 AM 30.2°F 30.2°F 100% 30.15 in 2.5 miles SE 1.2 mph - N/A   Overcast
1:18 AM 30.2°F 30.2°F 100% 30.15 in 2.5 miles ENE 2.3 mph - N/A   Overcast
1:28 AM 30.2°F 30.2°F 100% 30.15 in 3.0 miles SSE 2.3 mph - N/A Snow Light Snow
1:40 AM 30.2°F 30.2°F 100% 30.15 in 3.0 miles Calm Calm - N/A   Overcast
1:41 AM 30.2°F 30.2°F 100% 30.15 in 3.0 miles Calm Calm - N/A   Light Freezing Drizzle
1:44 AM 30.2°F 30.2°F 100% 30.15 in 3.0 miles Calm Calm - N/A Snow Light Snow
1:58 AM 29.5°F 29.5°F 100% 30.23 in 7.0 miles West 2.3 mph - 0.00 in Snow Light Snow
2:21 AM 28.4°F 28.4°F 100% 30.16 in 7.0 miles NNW 1.2 mph - N/A   Overcast
2:22 AM 28.4°F 28.4°F 100% 30.16 in 7.0 miles Calm Calm - N/A   Light Freezing Drizzle
2:43 AM 28.4°F 28.4°F 100% 30.16 in 9.0 miles North 2.3 mph - N/A Snow Light Snow
2:52 AM 28.4°F 28.4°F 100% 30.16 in 7.0 miles NW 2.3 mph - N/A   Overcast
2:53 AM 28.4°F 28.4°F 100% 30.16 in 6.0 miles NW 3.5 mph - N/A   Light Freezing Drizzle
2:58 AM 29.1°F 29.1°F 100% 30.25 in 5.0 miles NW 3.5 mph - 0.00 in   Light Freezing Drizzle
3:08 AM 28.4°F 28.4°F 100% 30.16 in 5.0 miles NW 3.5 mph - N/A   Light Freezing Drizzle
3:09 AM 28.4°F 28.4°F 100% 30.15 in 5.0 miles NW 3.5 mph - N/A Snow Light Snow
3:24 AM 28.4°F 28.4°F 100% 30.16 in 6.0 miles NNW 2.3 mph - N/A Snow Light Snow
3:26 AM 28.4°F 28.4°F 100% 30.16 in 7.0 miles NW 2.3 mph - N/A   Overcast
3:27 AM 28.4°F 28.4°F 100% 30.16 in 8.0 miles NW 2.3 mph - N/A   Light Freezing Drizzle
3:37 AM 28.4°F 28.4°F 100% 30.16 in 10.0 miles WNW 2.3 mph - N/A   Light Freezing Drizzle
3:56 AM 28.4°F 28.4°F 100% 30.17 in 10.0 miles West 5.8 mph - N/A   Overcast
3:58 AM 28.4°F 28.4°F 100% 30.26 in 10.0 miles West 5.8 mph - 0.00 in   Overcast
4:23 AM 28.4°F 28.4°F 100% 30.17 in 10.0 miles West 5.8 mph - N/A   Overcast
4:38 AM 28.4°F 28.4°F 100% 30.17 in 10.0 miles WSW 3.5 mph - N/A   Overcast
4:46 AM 28.4°F 28.4°F 100% 30.18 in 10.0 miles WSW 6.9 mph - N/A   Overcast
4:58 AM 27.7°F 27.7°F 100% 30.27 in 10.0 miles West 5.8 mph - 0.00 in   Overcast
5:05 AM 28.4°F 28.4°F 100% 30.18 in 10.0 miles Variable 4.6 mph - N/A   Overcast
5:29 AM 28.4°F 28.4°F 100% 30.17 in 10.0 miles WSW 4.6 mph - N/A   Overcast
5:57 AM 27.9°F 27.9°F 100% 30.27 in 10.0 miles WSW 6.9 mph - N/A   Overcast
6:44 AM 28.4°F 28.4°F 100% 30.20 in 10.0 miles WSW 8.1 mph - N/A   Overcast
6:58 AM 27.7°F 27.7°F 100% 30.29 in 10.0 miles WSW 6.9 mph - N/A   Overcast
7:32 AM 26.6°F 26.6°F 100% 30.20 in 10.0 miles SW 6.9 mph - N/A   Overcast
7:51 AM 28.4°F 28.4°F 100% 30.20 in 10.0 miles SW 4.6 mph - N/A   Overcast
7:58 AM 27.7°F 27.7°F 100% 30.29 in 10.0 miles SW 6.9 mph - 0.00 in   Overcast
8:06 AM 28.4°F 28.4°F 100% 30.20 in 10.0 miles SW 8.1 mph - N/A   Overcast
8:58 AM 27.7°F 27.7°F 100% 30.29 in 10.0 miles SW 6.9 mph - N/A   Overcast
9:08 AM 28.4°F 28.4°F 100% 30.19 in 10.0 miles SSW 9.2 mph - N/A   Overcast
9:23 AM 28.4°F 28.4°F 100% 30.19 in 10.0 miles SSW 10.4 mph - N/A   Overcast
9:33 AM 28.4°F 28.4°F 100% 30.19 in 10.0 miles SSW 11.5 mph - N/A   Overcast
9:41 AM 28.4°F 28.4°F 100% 30.19 in 10.0 miles SW 11.5 mph - N/A   Overcast
9:56 AM 28.4°F 28.4°F 100% 30.20 in 10.0 miles SW 10.4 mph - N/A   Overcast
9:58 AM 28.4°F 28.4°F 100% 30.29 in 10.0 miles SW 10.4 mph - 0.00 in   Overcast
10:31 AM 28.4°F 28.4°F 100% 30.20 in 10.0 miles SW 10.4 mph - N/A   Overcast
10:41 AM 28.4°F 28.4°F 100% 30.20 in 10.0 miles WSW 9.2 mph - N/A   Overcast
10:46 AM 28.4°F 28.4°F 100% 30.20 in 10.0 miles SSW 8.1 mph - N/A   Overcast
10:58 AM 28.2°F 28.2°F 100% 30.28 in 10.0 miles SW 8.1 mph - 0.00 in   Overcast
11:03 AM 28.4°F 28.4°F 100% 30.18 in 10.0 miles SW 10.4 mph - N/A   Overcast
11:23 AM 28.4°F 28.4°F 100% 30.18 in 10.0 miles SW 6.9 mph - N/A   Overcast
11:43 AM 28.4°F 28.4°F 100% 30.18 in 10.0 miles SW 5.8 mph - N/A   Overcast
11:58 AM 28.9°F 28.9°F 100% 30.27 in 10.0 miles SSW 6.9 mph - N/A   Overcast
12:17 PM 28.4°F 28.4°F 100% 30.18 in 10.0 miles WSW 6.9 mph - N/A   Overcast
12:24 PM 28.4°F 28.4°F 100% 30.18 in 10.0 miles SW 8.1 mph - N/A   Overcast
12:39 PM 28.4°F 28.4°F 100% 30.17 in 10.0 miles SSW 10.4 mph - N/A   Overcast
12:49 PM 28.4°F 28.4°F 100% 30.17 in 10.0 miles SSW 10.4 mph - N/A   Overcast
12:58 PM 28.9°F 28.9°F 100% 30.25 in 10.0 miles SSW 5.8 mph - 0.00 in   Overcast
1:08 PM 28.4°F 28.4°F 100% 30.16 in 10.0 miles SSW 6.9 mph - N/A   Overcast
1:23 PM 28.4°F 28.4°F 100% 30.15 in 10.0 miles SSW 5.8 mph - N/A   Overcast
1:33 PM 28.4°F 28.4°F 100% 30.15 in 10.0 miles SSW 6.9 mph - N/A   Overcast
1:38 PM 28.4°F 28.4°F 100% 30.15 in 10.0 miles South 5.8 mph - N/A   Overcast
1:58 PM 29.3°F 29.3°F 100% 30.22 in 10.0 miles SSW 5.8 mph - N/A   Overcast
2:30 PM 28.4°F 28.4°F 100% 30.14 in 10.0 miles SW 5.8 mph - N/A   Overcast
2:35 PM 28.4°F 28.4°F 100% 30.14 in 10.0 miles SW 5.8 mph - N/A   Overcast
2:40 PM 28.4°F 28.4°F 100% 30.14 in 10.0 miles SW 4.6 mph - N/A   Overcast
2:50 PM 30.2°F 30.2°F 100% 30.14 in 10.0 miles SW 4.6 mph - N/A   Overcast
2:58 PM 29.5°F 29.5°F 100% 30.22 in 10.0 miles SSW 5.8 mph - 0.00 in   Overcast
3:08 PM 30.2°F 30.2°F 100% 30.14 in 10.0 miles SSW 5.8 mph - N/A   Overcast
3:46 PM 30.2°F 30.2°F 100% 30.13 in 10.0 miles WSW 5.8 mph - N/A   Overcast
3:50 PM 30.2°F 30.2°F 100% 30.13 in 10.0 miles SW 5.8 mph - N/A   Overcast
3:51 PM 30.2°F 30.2°F 100% 30.13 in 10.0 miles SW 6.9 mph - N/A   Overcast
3:58 PM 29.5°F 29.5°F 100% 30.21 in 10.0 miles WSW 5.8 mph - 0.00 in   Overcast
4:06 PM 30.2°F 30.2°F 100% 30.13 in 10.0 miles West 4.6 mph - N/A   Overcast
4:16 PM 28.4°F 28.4°F 100% 30.13 in 10.0 miles WSW 5.8 mph - N/A   Overcast
4:28 PM 28.4°F 28.4°F 100% 30.12 in 10.0 miles SW 2.3 mph - N/A   Overcast
4:37 PM 28.4°F 28.4°F 100% 30.12 in 10.0 miles SW 2.3 mph - N/A   Overcast
4:58 PM 29.3°F 29.3°F 100% 30.20 in 10.0 miles South 2.3 mph - 0.00 in   Overcast
5:03 PM 28.4°F 28.4°F 100% 30.11 in 10.0 miles South 4.6 mph - N/A   Overcast
5:38 PM 30.2°F 30.2°F 100% 30.11 in 10.0 miles South 2.3 mph - N/A   Overcast
5:49 PM 30.2°F 30.2°F 100% 30.10 in 10.0 miles SSE 3.5 mph - N/A   Overcast
5:54 PM 28.4°F 28.4°F 100% 30.10 in 10.0 miles SSE 4.6 mph - N/A   Overcast
5:58 PM 29.3°F 29.3°F 100% 30.19 in 10.0 miles SSE 2.3 mph - 0.00 in   Overcast
6:18 PM 30.2°F 30.2°F 100% 30.10 in 10.0 miles SSE 2.3 mph - N/A   Overcast
6:27 PM 30.2°F 30.2°F 100% 30.10 in 10.0 miles South 2.3 mph - N/A   Overcast
6:48 PM 30.2°F 30.2°F 100% 30.09 in 7.0 miles SSE 3.5 mph - N/A   Overcast
6:58 PM 29.5°F 29.5°F 100% 30.17 in 7.0 miles SSE 4.6 mph - 0.00 in   Overcast
7:09 PM 28.4°F 28.4°F 100% 30.09 in 7.0 miles SSE 4.6 mph - N/A   Overcast
7:19 PM 28.4°F 28.4°F 100% 30.09 in 4.0 miles SSE 5.8 mph - N/A   Overcast
7:24 PM 28.4°F 28.4°F 100% 30.09 in 3.0 miles SSE 3.5 mph - N/A   Overcast
7:29 PM 28.4°F 28.4°F 100% 30.08 in 2.0 miles SE 4.6 mph - N/A   Overcast
7:34 PM 28.4°F 28.4°F 100% 30.08 in 1.5 miles South 5.8 mph - N/A   Overcast
7:39 PM 28.4°F 28.4°F 100% 30.08 in 1.2 miles SSE 4.6 mph - N/A   Overcast
7:54 PM 28.4°F 28.4°F 100% 30.08 in 1.0 miles SSE 3.5 mph - N/A   Mist
7:58 PM 29.3°F 29.3°F 100% 30.16 in 1.0 miles SSE 3.5 mph - 0.00 in   Mist
8:03 PM 30.2°F 30.2°F 100% 30.07 in 0.8 miles SSE 5.8 mph - N/A   Mist
8:05 PM 30.2°F 30.2°F 100% 30.07 in 1.0 miles SSE 4.6 mph - N/A   Mist
8:10 PM 30.2°F 30.2°F 100% 30.07 in 1.2 miles SSE 4.6 mph - N/A   Overcast
8:15 PM 30.2°F 30.2°F 100% 30.06 in 1.5 miles South 3.5 mph - N/A   Overcast
8:20 PM 30.2°F 30.2°F 100% 30.06 in 1.2 miles SSE 2.3 mph - N/A   Overcast
8:25 PM 30.2°F 30.2°F 100% 30.06 in 1.0 miles SE 2.3 mph - N/A   Mist
8:29 PM 32.0°F 32.0°F 100% 30.06 in 0.8 miles SE 4.6 mph - N/A Rain Light Freezing Rain
8:36 PM 32.0°F 32.0°F 100% 30.05 in 0.5 miles SE 4.6 mph - N/A Fog Light Freezing Fog
8:37 PM 32.0°F 32.0°F 100% 30.05 in 0.5 miles SE 4.6 mph - N/A Fog Light Freezing Fog
8:39 PM 32.0°F 32.0°F 100% 30.05 in 0.5 miles SE 3.5 mph - N/A Fog Light Freezing Fog
8:58 PM 31.1°F 31.1°F 100% 30.13 in 0.5 miles SSE 6.9 mph - N/A Fog Light Freezing Fog
9:03 PM 32.0°F 32.0°F 100% 30.05 in 0.5 miles SSE 8.1 mph - N/A Fog Light Freezing Fog
9:18 PM 32.0°F 32.0°F 100% 30.05 in 0.8 miles South 4.6 mph - N/A   Mist
9:23 PM 32.0°F 32.0°F 100% 30.04 in 0.8 miles South 5.8 mph - N/A   Mist
9:43 PM 32.0°F 32.0°F 100% 30.03 in 0.5 miles South 5.8 mph - N/A Fog Light Freezing Fog
9:58 PM 31.8°F 31.8°F 100% 30.11 in 0.5 miles South 6.9 mph - N/A Fog Light Freezing Fog
10:23 PM 32.0°F 32.0°F 100% 30.02 in 0.5 miles South 5.8 mph - N/A Fog Fog
10:58 PM 32.5°F 32.5°F 100% 30.09 in 0.5 miles South 6.9 mph - N/A Fog Fog
11:13 PM 32.0°F 32.0°F 100% 30.00 in 0.5 miles South 5.8 mph - N/A Fog Fog
11:33 PM 32.0°F 32.0°F 100% 29.99 in 0.8 miles South 10.4 mph - N/A   Mist
11:38 PM 32.0°F 32.0°F 100% 29.99 in 1.0 miles SSW 8.1 mph - N/A   Mist
11:44 PM 32.0°F 32.0°F 100% 29.97 in 1.0 miles South 8.1 mph - N/A   Mist
11:45 PM 32.0°F 32.0°F 100% 29.97 in 1.0 miles South 8.1 mph - N/A   Mist
11:50 PM 32.0°F 32.0°F 100% 29.97 in 1.5 miles South 9.2 mph - N/A   Overcast
11:55 PM 32.0°F 32.0°F 100% 29.97 in 2.5 miles SSW 8.1 mph - N/A   Overcast
11:58 PM 32.7°F 32.7°F 100% 30.05 in 3.0 miles South 6.9 mph - 0.00 in   Overcast
Moon Phase
Dec. 10 Dec. 13 Dec. 20 Dec. 28 Jan. 04
Sunrise:07:28 AM (PST) Moon Rise:04:09 AM (PST)12/10
Sunset:03:58 PM (PST) Moon Set:01:58 PM (PST)12/10

Copyright © 2014 The Weather Underground, Inc.